Year,Month,Day,Hour,Minute,Value (Times are PST for temperature in C)
2015,05,28,00,00,14.10
2015,05,28,00,01,14.10
2015,05,28,00,02,14.10
2015,05,28,00,03,14.10
2015,05,28,00,04,14.00
2015,05,28,00,05,14.00
2015,05,28,00,06,13.90
2015,05,28,00,07,13.90
2015,05,28,00,08,13.90
2015,05,28,00,09,13.90
2015,05,28,00,10,13.80
2015,05,28,00,11,13.80
2015,05,28,00,12,13.80
2015,05,28,00,13,13.80
2015,05,28,00,14,13.80
2015,05,28,00,15,13.80
2015,05,28,00,16,13.80
2015,05,28,00,17,13.80
2015,05,28,00,18,13.80
2015,05,28,00,19,13.80
2015,05,28,00,20,13.80
2015,05,28,00,21,13.70
2015,05,28,00,22,13.70
2015,05,28,00,23,13.70
2015,05,28,00,24,13.70
2015,05,28,00,25,13.70
2015,05,28,00,26,13.70
2015,05,28,00,27,13.70
2015,05,28,00,28,13.70
2015,05,28,00,29,13.60
2015,05,28,00,30,13.60
2015,05,28,00,31,13.60
2015,05,28,00,32,13.60
2015,05,28,00,33,13.60
2015,05,28,00,34,13.60
2015,05,28,00,35,13.60
2015,05,28,00,36,13.50
2015,05,28,00,37,13.50
2015,05,28,00,38,13.50
2015,05,28,00,39,13.50
2015,05,28,00,40,13.40
2015,05,28,00,41,13.40
2015,05,28,00,42,13.40
2015,05,28,00,43,13.40
2015,05,28,00,44,13.40
2015,05,28,00,45,13.40
2015,05,28,00,46,13.40
2015,05,28,00,47,13.40
2015,05,28,00,48,13.40
2015,05,28,00,49,13.40
2015,05,28,00,50,13.40
2015,05,28,00,51,13.40
2015,05,28,00,52,13.40
2015,05,28,00,53,13.40
2015,05,28,00,54,13.40
2015,05,28,00,55,13.40
2015,05,28,00,56,13.40
2015,05,28,00,57,13.40
2015,05,28,00,58,13.40
2015,05,28,00,59,13.40
2015,05,28,01,00,13.40
2015,05,28,01,01,13.40
2015,05,28,01,02,13.40
2015,05,28,01,03,13.40
2015,05,28,01,04,13.40
2015,05,28,01,05,13.40
2015,05,28,01,06,13.40
2015,05,28,01,07,13.30
2015,05,28,01,08,13.30
2015,05,28,01,09,13.30
2015,05,28,01,10,13.20
2015,05,28,01,11,13.20
2015,05,28,01,12,13.20
2015,05,28,01,13,13.20
2015,05,28,01,14,13.20
2015,05,28,01,15,13.20
2015,05,28,01,16,13.10
2015,05,28,01,17,13.10
2015,05,28,01,18,13.10
2015,05,28,01,19,13.10
2015,05,28,01,20,13.10
2015,05,28,01,21,13.10
2015,05,28,01,22,13.10
2015,05,28,01,23,13.10
2015,05,28,01,24,13.10
2015,05,28,01,25,13.10
2015,05,28,01,26,13.10
2015,05,28,01,27,13.10
2015,05,28,01,28,13.10
2015,05,28,01,29,13.10
2015,05,28,01,30,13.00
2015,05,28,01,31,13.00
2015,05,28,01,32,12.90
2015,05,28,01,33,13.00
2015,05,28,01,34,13.00
2015,05,28,01,35,13.00
2015,05,28,01,36,13.00
2015,05,28,01,37,13.10
2015,05,28,01,38,13.10
2015,05,28,01,39,13.10
2015,05,28,01,40,13.10
2015,05,28,01,41,13.00
2015,05,28,01,42,13.00
2015,05,28,01,43,13.00
2015,05,28,01,44,13.00
2015,05,28,01,45,13.00
2015,05,28,01,46,13.00
2015,05,28,01,47,13.00
2015,05,28,01,48,12.90
2015,05,28,01,49,12.90
2015,05,28,01,50,12.90
2015,05,28,01,51,12.90
2015,05,28,01,52,12.80
2015,05,28,01,53,12.80
2015,05,28,01,54,12.80
2015,05,28,01,55,12.80
2015,05,28,01,56,12.80
2015,05,28,01,57,12.80
2015,05,28,01,58,12.80
2015,05,28,01,59,12.80
2015,05,28,02,00,12.70
2015,05,28,02,01,12.70
2015,05,28,02,02,12.70
2015,05,28,02,03,12.70
2015,05,28,02,04,12.70
2015,05,28,02,05,12.70
2015,05,28,02,06,12.70
2015,05,28,02,07,12.70
2015,05,28,02,08,12.60
2015,05,28,02,09,12.60
2015,05,28,02,10,12.50
2015,05,28,02,11,12.50
2015,05,28,02,12,12.50
2015,05,28,02,13,12.40
2015,05,28,02,14,12.40
2015,05,28,02,15,12.40
2015,05,28,02,16,12.40
2015,05,28,02,17,12.40
2015,05,28,02,18,12.40
2015,05,28,02,19,12.40
2015,05,28,02,20,12.40
2015,05,28,02,21,12.40
2015,05,28,02,22,12.40
2015,05,28,02,23,12.40
2015,05,28,02,24,12.40
2015,05,28,02,25,12.40
2015,05,28,02,26,12.40
2015,05,28,02,27,12.40
2015,05,28,02,28,12.40
2015,05,28,02,29,12.30
2015,05,28,02,30,12.30
2015,05,28,02,31,12.30
2015,05,28,02,32,12.30
2015,05,28,02,33,12.30
2015,05,28,02,34,12.30
2015,05,28,02,35,12.30
2015,05,28,02,36,12.30
2015,05,28,02,37,12.30
2015,05,28,02,38,12.30
2015,05,28,02,39,12.20
2015,05,28,02,40,12.20
2015,05,28,02,41,12.20
2015,05,28,02,42,12.20
2015,05,28,02,43,12.20
2015,05,28,02,44,12.20
2015,05,28,02,45,12.20
2015,05,28,02,46,12.20
2015,05,28,02,47,12.20
2015,05,28,02,48,12.20
2015,05,28,02,49,12.20
2015,05,28,02,50,12.20
2015,05,28,02,51,12.20
2015,05,28,02,52,12.20
2015,05,28,02,53,12.20
2015,05,28,02,54,12.20
2015,05,28,02,55,12.20
2015,05,28,02,56,12.20
2015,05,28,02,57,12.20
2015,05,28,02,58,12.30
2015,05,28,02,59,12.30
2015,05,28,03,00,12.30
2015,05,28,03,01,12.30
2015,05,28,03,02,12.30
2015,05,28,03,03,12.30
2015,05,28,03,04,12.30
2015,05,28,03,05,12.30
2015,05,28,03,06,12.30
2015,05,28,03,07,12.30
2015,05,28,03,08,12.20
2015,05,28,03,09,12.20
2015,05,28,03,10,12.20
2015,05,28,03,11,12.20
2015,05,28,03,12,12.10
2015,05,28,03,13,12.10
2015,05,28,03,14,12.10
2015,05,28,03,15,12.10
2015,05,28,03,16,12.10
2015,05,28,03,17,12.00
2015,05,28,03,18,12.10
2015,05,28,03,19,12.10
2015,05,28,03,20,12.10
2015,05,28,03,21,12.10
2015,05,28,03,22,12.00
2015,05,28,03,23,12.00
2015,05,28,03,24,12.00
2015,05,28,03,25,12.00
2015,05,28,03,26,12.00
2015,05,28,03,27,11.90
2015,05,28,03,28,11.90
2015,05,28,03,29,11.90
2015,05,28,03,30,11.90
2015,05,28,03,31,11.90
2015,05,28,03,32,11.90
2015,05,28,03,33,11.90
2015,05,28,03,34,11.90
2015,05,28,03,35,11.80
2015,05,28,03,36,11.80
2015,05,28,03,37,11.80
2015,05,28,03,38,11.80
2015,05,28,03,39,11.80
2015,05,28,03,40,11.80
2015,05,28,03,41,11.80
2015,05,28,03,42,11.90
2015,05,28,03,43,11.90
2015,05,28,03,44,11.90
2015,05,28,03,45,11.90
2015,05,28,03,46,11.90
2015,05,28,03,47,12.00
2015,05,28,03,48,12.00
2015,05,28,03,49,12.00
2015,05,28,03,50,12.00
2015,05,28,03,51,12.00
2015,05,28,03,52,12.00
2015,05,28,03,53,11.90
2015,05,28,03,54,11.90
2015,05,28,03,55,11.90
2015,05,28,03,56,11.90
2015,05,28,03,57,11.80
2015,05,28,03,58,11.80
2015,05,28,03,59,11.80
2015,05,28,04,00,11.80
2015,05,28,04,01,11.80
2015,05,28,04,02,11.80
2015,05,28,04,03,11.80
2015,05,28,04,04,11.80
2015,05,28,04,05,11.90
2015,05,28,04,06,11.90
2015,05,28,04,07,11.90
2015,05,28,04,08,11.90
2015,05,28,04,09,11.90
2015,05,28,04,10,11.90
2015,05,28,04,11,11.90
2015,05,28,04,12,11.90
2015,05,28,04,13,11.90
2015,05,28,04,14,11.80
2015,05,28,04,15,11.80
2015,05,28,04,16,11.80
2015,05,28,04,17,11.80
2015,05,28,04,18,11.80
2015,05,28,04,19,11.80
2015,05,28,04,20,11.80
2015,05,28,04,21,11.70
2015,05,28,04,22,11.70
2015,05,28,04,23,11.70
2015,05,28,04,24,11.70
2015,05,28,04,25,11.70
2015,05,28,04,26,11.70
2015,05,28,04,27,11.70
2015,05,28,04,28,11.60
2015,05,28,04,29,11.60
2015,05,28,04,30,11.60
2015,05,28,04,31,11.60
2015,05,28,04,32,11.60
2015,05,28,04,33,11.60
2015,05,28,04,34,11.60
2015,05,28,04,35,11.70
2015,05,28,04,36,11.70
2015,05,28,04,37,11.70
2015,05,28,04,38,11.70
2015,05,28,04,39,11.70
2015,05,28,04,40,11.70
2015,05,28,04,41,11.70
2015,05,28,04,42,11.70
2015,05,28,04,43,11.60
2015,05,28,04,44,11.60
2015,05,28,04,45,11.60
2015,05,28,04,46,11.60
2015,05,28,04,47,11.60
2015,05,28,04,48,11.60
2015,05,28,04,49,11.60
2015,05,28,04,50,11.50
2015,05,28,04,51,11.50
2015,05,28,04,52,11.50
2015,05,28,04,53,11.40
2015,05,28,04,54,11.40
2015,05,28,04,55,11.40
2015,05,28,04,56,11.40
2015,05,28,04,57,11.40
2015,05,28,04,58,11.50
2015,05,28,04,59,11.50
2015,05,28,05,00,11.50
2015,05,28,05,01,11.60
2015,05,28,05,02,11.60
2015,05,28,05,03,11.50
2015,05,28,05,04,11.50
2015,05,28,05,05,11.50
2015,05,28,05,06,11.40
2015,05,28,05,07,11.40
2015,05,28,05,08,11.40
2015,05,28,05,09,11.40
2015,05,28,05,10,11.40
2015,05,28,05,11,11.40
2015,05,28,05,12,11.40
2015,05,28,05,13,11.40
2015,05,28,05,14,11.40
2015,05,28,05,15,11.50
2015,05,28,05,16,11.50
2015,05,28,05,17,11.60
2015,05,28,05,18,11.60
2015,05,28,05,19,11.70
2015,05,28,05,20,11.70
2015,05,28,05,21,11.70
2015,05,28,05,22,11.70
2015,05,28,05,23,11.70
2015,05,28,05,24,11.70
2015,05,28,05,25,11.70
2015,05,28,05,26,11.70
2015,05,28,05,27,11.70
2015,05,28,05,28,11.70
2015,05,28,05,29,11.80
2015,05,28,05,30,11.80
2015,05,28,05,31,11.90
2015,05,28,05,32,11.90
2015,05,28,05,33,11.80
2015,05,28,05,34,11.80
2015,05,28,05,35,11.80
2015,05,28,05,36,11.80
2015,05,28,05,37,11.80
2015,05,28,05,38,11.80
2015,05,28,05,39,11.80
2015,05,28,05,40,11.80
2015,05,28,05,41,11.80
2015,05,28,05,42,11.90
2015,05,28,05,43,12.00
2015,05,28,05,44,12.10
2015,05,28,05,45,12.20
2015,05,28,05,46,12.20
2015,05,28,05,47,12.30
2015,05,28,05,48,12.30
2015,05,28,05,49,12.40
2015,05,28,05,50,12.40
2015,05,28,05,51,12.50
2015,05,28,05,52,12.50
2015,05,28,05,53,12.50
2015,05,28,05,54,12.60
2015,05,28,05,55,12.60
2015,05,28,05,56,12.60
2015,05,28,05,57,12.70
2015,05,28,05,58,12.70
2015,05,28,05,59,12.80
2015,05,28,06,00,12.90
2015,05,28,06,01,12.90
2015,05,28,06,02,13.00
2015,05,28,06,03,13.00
2015,05,28,06,04,13.00
2015,05,28,06,05,13.10
2015,05,28,06,06,13.10
2015,05,28,06,07,13.10
2015,05,28,06,08,13.10
2015,05,28,06,09,13.10
2015,05,28,06,10,13.10
2015,05,28,06,11,13.10
2015,05,28,06,12,13.10
2015,05,28,06,13,13.20
2015,05,28,06,14,13.30
2015,05,28,06,15,13.30
2015,05,28,06,16,13.40
2015,05,28,06,17,13.40
2015,05,28,06,18,13.40
2015,05,28,06,19,13.50
2015,05,28,06,20,13.50
2015,05,28,06,21,13.60
2015,05,28,06,22,13.60
2015,05,28,06,23,13.60
2015,05,28,06,24,13.60
2015,05,28,06,25,13.60
2015,05,28,06,26,13.70
2015,05,28,06,27,13.70
2015,05,28,06,28,13.70
2015,05,28,06,29,13.70
2015,05,28,06,30,13.70
2015,05,28,06,31,13.70
2015,05,28,06,32,13.70
2015,05,28,06,33,13.70
2015,05,28,06,34,13.80
2015,05,28,06,35,13.80
2015,05,28,06,36,13.80
2015,05,28,06,37,13.80
2015,05,28,06,38,13.80
2015,05,28,06,39,13.90
2015,05,28,06,40,13.90
2015,05,28,06,41,13.90
2015,05,28,06,42,13.90
2015,05,28,06,43,13.90
2015,05,28,06,44,13.90
2015,05,28,06,45,14.00
2015,05,28,06,46,14.00
2015,05,28,06,47,14.10
2015,05,28,06,48,14.20
2015,05,28,06,49,14.20
2015,05,28,06,50,14.30
2015,05,28,06,51,14.30
2015,05,28,06,52,14.40
2015,05,28,06,53,14.40
2015,05,28,06,54,14.40
2015,05,28,06,55,14.50
2015,05,28,06,56,14.50
2015,05,28,06,57,14.50
2015,05,28,06,58,14.50
2015,05,28,06,59,14.50
2015,05,28,07,00,14.60
2015,05,28,07,01,14.60
2015,05,28,07,02,14.60
2015,05,28,07,03,14.60
2015,05,28,07,04,14.70
2015,05,28,07,05,14.80
2015,05,28,07,06,14.80
2015,05,28,07,07,15.00
2015,05,28,07,08,15.00
2015,05,28,07,09,15.00
2015,05,28,07,10,15.00
2015,05,28,07,11,15.00
2015,05,28,07,12,15.00
2015,05,28,07,13,15.10
2015,05,28,07,14,15.20
2015,05,28,07,15,15.30
2015,05,28,07,16,15.30
2015,05,28,07,17,15.40
2015,05,28,07,18,15.50
2015,05,28,07,19,15.50
2015,05,28,07,20,15.60
2015,05,28,07,21,15.60
2015,05,28,07,22,15.70
2015,05,28,07,23,15.70
2015,05,28,07,24,15.80
2015,05,28,07,25,15.80
2015,05,28,07,26,15.90
2015,05,28,07,27,15.90
2015,05,28,07,28,15.90
2015,05,28,07,29,16.00
2015,05,28,07,30,16.00
2015,05,28,07,31,16.00
2015,05,28,07,32,16.10
2015,05,28,07,33,16.10
2015,05,28,07,34,16.10
2015,05,28,07,35,16.10
2015,05,28,07,36,16.10
2015,05,28,07,37,16.10
2015,05,28,07,38,16.10
2015,05,28,07,39,16.10
2015,05,28,07,40,16.10
2015,05,28,07,41,16.10
2015,05,28,07,42,16.10
2015,05,28,07,43,16.10
2015,05,28,07,44,16.10
2015,05,28,07,45,16.20
2015,05,28,07,46,16.20
2015,05,28,07,47,16.20
2015,05,28,07,48,16.30
2015,05,28,07,49,16.30
2015,05,28,07,50,16.30
2015,05,28,07,51,16.30
2015,05,28,07,52,16.30
2015,05,28,07,53,16.40
2015,05,28,07,54,16.40
2015,05,28,07,55,16.50
2015,05,28,07,56,16.50
2015,05,28,07,57,16.60
2015,05,28,07,58,16.60
2015,05,28,07,59,16.70
2015,05,28,08,00,16.70
2015,05,28,08,01,16.80
2015,05,28,08,02,16.80
2015,05,28,08,03,16.80
2015,05,28,08,04,16.80
2015,05,28,08,05,16.80
2015,05,28,08,06,16.80
2015,05,28,08,07,16.80
2015,05,28,08,08,16.80
2015,05,28,08,09,16.80
2015,05,28,08,10,16.80
2015,05,28,08,11,16.80
2015,05,28,08,12,16.80
2015,05,28,08,13,16.80
2015,05,28,08,14,16.80
2015,05,28,08,15,16.90
2015,05,28,08,16,16.90
2015,05,28,08,17,16.90
2015,05,28,08,18,17.00
2015,05,28,08,19,17.00
2015,05,28,08,20,17.00
2015,05,28,08,21,16.90
2015,05,28,08,22,16.90
2015,05,28,08,23,17.00
2015,05,28,08,24,17.00
2015,05,28,08,25,17.00
2015,05,28,08,26,17.00
2015,05,28,08,27,17.00
2015,05,28,08,28,17.00
2015,05,28,08,29,17.00
2015,05,28,08,30,17.00
2015,05,28,08,31,17.00
2015,05,28,08,32,17.00
2015,05,28,08,33,17.00
2015,05,28,08,34,17.10
2015,05,28,08,35,17.00
2015,05,28,08,36,17.00
2015,05,28,08,37,17.00
2015,05,28,08,38,17.00
2015,05,28,08,39,17.10
2015,05,28,08,40,17.10
2015,05,28,08,41,17.10
2015,05,28,08,42,17.10
2015,05,28,08,43,17.10
2015,05,28,08,44,17.10
2015,05,28,08,45,17.00
2015,05,28,08,46,17.00
2015,05,28,08,47,17.00
2015,05,28,08,48,16.90
2015,05,28,08,49,16.90
2015,05,28,08,50,17.00
2015,05,28,08,51,17.00
2015,05,28,08,52,17.00
2015,05,28,08,53,17.00
2015,05,28,08,54,17.00
2015,05,28,08,55,17.00
2015,05,28,08,56,17.00
2015,05,28,08,57,17.00
2015,05,28,08,58,17.10
2015,05,28,08,59,17.10
2015,05,28,09,00,17.00
2015,05,28,09,01,17.00
2015,05,28,09,02,17.00
2015,05,28,09,03,17.00
2015,05,28,09,04,17.00
2015,05,28,09,05,17.00
2015,05,28,09,06,17.10
2015,05,28,09,07,17.10
2015,05,28,09,08,17.20
2015,05,28,09,09,17.20
2015,05,28,09,10,17.20
2015,05,28,09,11,17.20
2015,05,28,09,12,17.20
2015,05,28,09,13,17.20
2015,05,28,09,14,17.20
2015,05,28,09,15,17.20
2015,05,28,09,16,17.20
2015,05,28,09,17,17.20
2015,05,28,09,18,17.20
2015,05,28,09,19,17.20
2015,05,28,09,20,17.20
2015,05,28,09,21,17.30
2015,05,28,09,22,17.30
2015,05,28,09,23,17.30
2015,05,28,09,24,17.30
2015,05,28,09,25,17.30
2015,05,28,09,26,17.30
2015,05,28,09,27,17.30
2015,05,28,09,28,17.30
2015,05,28,09,29,17.30
2015,05,28,09,30,17.40
2015,05,28,09,31,17.50
2015,05,28,09,32,17.50
2015,05,28,09,33,17.60
2015,05,28,09,34,17.60
2015,05,28,09,35,17.60
2015,05,28,09,36,17.50
2015,05,28,09,37,17.50
2015,05,28,09,38,17.50
2015,05,28,09,39,17.60
2015,05,28,09,40,17.60
2015,05,28,09,41,17.60
2015,05,28,09,42,17.60
2015,05,28,09,43,17.70
2015,05,28,09,44,17.70
2015,05,28,09,45,17.80
2015,05,28,09,46,17.80
2015,05,28,09,47,17.90
2015,05,28,09,48,18.00
2015,05,28,09,49,18.00
2015,05,28,09,50,18.10
2015,05,28,09,51,18.20
2015,05,28,09,52,18.20
2015,05,28,09,53,18.30
2015,05,28,09,54,18.30
2015,05,28,09,55,18.20
2015,05,28,09,56,18.20
2015,05,28,09,57,18.20
2015,05,28,09,58,18.20
2015,05,28,09,59,18.20
2015,05,28,10,00,18.10
2015,05,28,10,01,18.00
2015,05,28,10,02,18.00
2015,05,28,10,03,18.00
2015,05,28,10,04,18.10
2015,05,28,10,05,18.10
2015,05,28,10,06,18.20
2015,05,28,10,07,18.20
2015,05,28,10,08,18.20
2015,05,28,10,09,18.30
2015,05,28,10,10,18.30
2015,05,28,10,11,18.30
2015,05,28,10,12,18.30
2015,05,28,10,13,18.30
2015,05,28,10,14,18.30
2015,05,28,10,15,18.30
2015,05,28,10,16,18.30
2015,05,28,10,17,18.40
2015,05,28,10,18,18.30
2015,05,28,10,19,18.40
2015,05,28,10,20,18.50
2015,05,28,10,21,18.50
2015,05,28,10,22,18.50
2015,05,28,10,23,18.40
2015,05,28,10,24,18.30
2015,05,28,10,25,18.30
2015,05,28,10,26,18.30
2015,05,28,10,27,18.40
2015,05,28,10,28,18.40
2015,05,28,10,29,18.50
2015,05,28,10,30,18.50
2015,05,28,10,31,18.50
2015,05,28,10,32,18.40
2015,05,28,10,33,18.50
2015,05,28,10,34,18.50
2015,05,28,10,35,18.60
2015,05,28,10,36,18.60
2015,05,28,10,37,18.70
2015,05,28,10,38,18.70
2015,05,28,10,39,18.70
2015,05,28,10,40,18.70
2015,05,28,10,41,18.70
2015,05,28,10,42,18.60
2015,05,28,10,43,18.50
2015,05,28,10,44,18.40
2015,05,28,10,45,18.30
2015,05,28,10,46,18.30
2015,05,28,10,47,18.30
2015,05,28,10,48,18.30
2015,05,28,10,49,18.40
2015,05,28,10,50,18.40
2015,05,28,10,51,18.50
2015,05,28,10,52,18.50
2015,05,28,10,53,18.60
2015,05,28,10,54,18.60
2015,05,28,10,55,18.60
2015,05,28,10,56,18.70
2015,05,28,10,57,18.70
2015,05,28,10,58,18.70
2015,05,28,10,59,18.70
2015,05,28,11,00,18.60
2015,05,28,11,01,18.60
2015,05,28,11,02,18.60
2015,05,28,11,03,18.60
2015,05,28,11,04,18.60
2015,05,28,11,05,18.60
2015,05,28,11,06,18.70
2015,05,28,11,07,18.60
2015,05,28,11,08,18.50
2015,05,28,11,09,18.40
2015,05,28,11,10,18.40
2015,05,28,11,11,18.40
2015,05,28,11,12,18.40
2015,05,28,11,13,18.40
2015,05,28,11,14,18.40
2015,05,28,11,15,18.30
2015,05,28,11,16,18.40
2015,05,28,11,17,18.40
2015,05,28,11,18,18.30
2015,05,28,11,19,18.30
2015,05,28,11,20,18.30
2015,05,28,11,21,18.30
2015,05,28,11,22,18.30
2015,05,28,11,23,18.30
2015,05,28,11,24,18.30
2015,05,28,11,25,18.30
2015,05,28,11,26,18.40
2015,05,28,11,27,18.50
2015,05,28,11,28,18.70
2015,05,28,11,29,18.80
2015,05,28,11,30,19.00
2015,05,28,11,31,19.00
2015,05,28,11,32,19.00
2015,05,28,11,33,19.00
2015,05,28,11,34,18.90
2015,05,28,11,35,18.90
2015,05,28,11,36,18.90
2015,05,28,11,37,18.90
2015,05,28,11,38,18.90
2015,05,28,11,39,18.90
2015,05,28,11,40,18.90
2015,05,28,11,41,18.90
2015,05,28,11,42,18.90
2015,05,28,11,43,18.90
2015,05,28,11,44,18.90
2015,05,28,11,45,18.90
2015,05,28,11,46,18.90
2015,05,28,11,47,18.90
2015,05,28,11,48,18.90
2015,05,28,11,49,18.90
2015,05,28,11,50,18.80
2015,05,28,11,51,18.80
2015,05,28,11,52,18.80
2015,05,28,11,53,18.80
2015,05,28,11,54,18.80
2015,05,28,11,55,18.80
2015,05,28,11,56,18.90
2015,05,28,11,57,18.90
2015,05,28,11,58,18.90
2015,05,28,11,59,19.00
2015,05,28,12,00,19.10
2015,05,28,12,01,19.20
2015,05,28,12,02,19.40
2015,05,28,12,03,19.50
2015,05,28,12,04,19.60
2015,05,28,12,05,19.70
2015,05,28,12,06,19.60
2015,05,28,12,07,19.60
2015,05,28,12,08,19.60
2015,05,28,12,09,19.50
2015,05,28,12,10,19.40
2015,05,28,12,11,19.40
2015,05,28,12,12,19.40
2015,05,28,12,13,19.50
2015,05,28,12,14,19.70
2015,05,28,12,15,19.80
2015,05,28,12,16,19.90
2015,05,28,12,17,20.00
2015,05,28,12,18,20.10
2015,05,28,12,19,20.20
2015,05,28,12,20,20.20
2015,05,28,12,21,20.20
2015,05,28,12,22,20.20
2015,05,28,12,23,20.20
2015,05,28,12,24,20.30
2015,05,28,12,25,20.30
2015,05,28,12,26,20.20
2015,05,28,12,27,20.20
2015,05,28,12,28,20.20
2015,05,28,12,29,20.30
2015,05,28,12,30,20.30
2015,05,28,12,31,20.40
2015,05,28,12,32,20.40
2015,05,28,12,33,20.40
2015,05,28,12,34,20.40
2015,05,28,12,35,20.40
2015,05,28,12,36,20.40
2015,05,28,12,37,20.50
2015,05,28,12,38,20.50
2015,05,28,12,39,20.50
2015,05,28,12,40,20.60
2015,05,28,12,41,20.60
2015,05,28,12,42,20.70
2015,05,28,12,43,20.70
2015,05,28,12,44,20.70
2015,05,28,12,45,20.70
2015,05,28,12,46,20.70
2015,05,28,12,47,20.80
2015,05,28,12,48,20.70
2015,05,28,12,49,20.70
2015,05,28,12,50,20.70
2015,05,28,12,51,20.70
2015,05,28,12,52,20.70
2015,05,28,12,53,20.80
2015,05,28,12,54,20.80
2015,05,28,12,55,20.70
2015,05,28,12,56,20.80
2015,05,28,12,57,20.80
2015,05,28,12,58,20.80
2015,05,28,12,59,20.80
2015,05,28,13,00,20.80
2015,05,28,13,01,20.80
2015,05,28,13,02,20.80
2015,05,28,13,03,20.80
2015,05,28,13,04,20.80
2015,05,28,13,05,20.70
2015,05,28,13,06,20.60
2015,05,28,13,07,20.60
2015,05,28,13,08,20.60
2015,05,28,13,09,20.60
2015,05,28,13,10,20.60
2015,05,28,13,11,20.50
2015,05,28,13,12,20.50
2015,05,28,13,13,20.40
2015,05,28,13,14,20.40
2015,05,28,13,15,20.40
2015,05,28,13,16,20.40
2015,05,28,13,17,20.50
2015,05,28,13,18,20.60
2015,05,28,13,19,20.60
2015,05,28,13,20,20.60
2015,05,28,13,21,20.50
2015,05,28,13,22,20.50
2015,05,28,13,23,20.50
2015,05,28,13,24,20.50
2015,05,28,13,25,20.50
2015,05,28,13,26,20.60
2015,05,28,13,27,20.60
2015,05,28,13,28,20.60
2015,05,28,13,29,20.70
2015,05,28,13,30,20.70
2015,05,28,13,31,20.80
2015,05,28,13,32,20.80
2015,05,28,13,33,20.80
2015,05,28,13,34,20.80
2015,05,28,13,35,20.80
2015,05,28,13,36,20.80
2015,05,28,13,37,20.70
2015,05,28,13,38,20.70
2015,05,28,13,39,20.80
2015,05,28,13,40,20.80
2015,05,28,13,41,20.90
2015,05,28,13,42,21.00
2015,05,28,13,43,21.00
2015,05,28,13,44,21.00
2015,05,28,13,45,21.10
2015,05,28,13,46,21.10
2015,05,28,13,47,21.10
2015,05,28,13,48,21.20
2015,05,28,13,49,21.30
2015,05,28,13,50,21.30
2015,05,28,13,51,21.40
2015,05,28,13,52,21.40
2015,05,28,13,53,21.50
2015,05,28,13,54,21.50
2015,05,28,13,55,21.60
2015,05,28,13,56,21.70
2015,05,28,13,57,21.70
2015,05,28,13,58,21.70
2015,05,28,13,59,21.70
2015,05,28,14,00,21.70
2015,05,28,14,01,21.70
2015,05,28,14,02,21.70
2015,05,28,14,03,21.70
2015,05,28,14,04,21.70
2015,05,28,14,05,21.70
2015,05,28,14,06,21.80
2015,05,28,14,07,21.80
2015,05,28,14,08,21.90
2015,05,28,14,09,22.10
2015,05,28,14,10,22.10
2015,05,28,14,11,22.20
2015,05,28,14,12,22.20
2015,05,28,14,13,22.30
2015,05,28,14,14,22.30
2015,05,28,14,15,22.30
2015,05,28,14,16,22.30
2015,05,28,14,17,22.40
2015,05,28,14,18,22.40
2015,05,28,14,19,22.40
2015,05,28,14,20,22.40
2015,05,28,14,21,22.30
2015,05,28,14,22,22.40
2015,05,28,14,23,22.30
2015,05,28,14,24,22.30
2015,05,28,14,25,22.20
2015,05,28,14,26,22.20
2015,05,28,14,27,22.20
2015,05,28,14,28,22.20
2015,05,28,14,29,22.20
2015,05,28,14,30,22.20
2015,05,28,14,31,22.20
2015,05,28,14,32,22.30
2015,05,28,14,33,22.30
2015,05,28,14,34,22.40
2015,05,28,14,35,22.40
2015,05,28,14,36,22.40
2015,05,28,14,37,22.40
2015,05,28,14,38,22.40
2015,05,28,14,39,22.30
2015,05,28,14,40,22.30
2015,05,28,14,41,22.20
2015,05,28,14,42,22.20
2015,05,28,14,43,22.20
2015,05,28,14,44,22.10
2015,05,28,14,45,22.10
2015,05,28,14,46,22.10
2015,05,28,14,47,22.10
2015,05,28,14,48,22.10
2015,05,28,14,49,22.10
2015,05,28,14,50,22.20
2015,05,28,14,51,22.30
2015,05,28,14,52,22.50
2015,05,28,14,53,22.60
2015,05,28,14,54,22.60
2015,05,28,14,55,22.60
2015,05,28,14,56,22.60
2015,05,28,14,57,22.60
2015,05,28,14,58,22.60
2015,05,28,14,59,22.60
2015,05,28,15,00,22.60
2015,05,28,15,01,22.60
2015,05,28,15,02,22.60
2015,05,28,15,03,22.60
2015,05,28,15,04,22.60
2015,05,28,15,05,22.60
2015,05,28,15,06,22.60
2015,05,28,15,07,22.60
2015,05,28,15,08,22.60
2015,05,28,15,09,22.60
2015,05,28,15,10,22.60
2015,05,28,15,11,22.50
2015,05,28,15,12,22.50
2015,05,28,15,13,22.50
2015,05,28,15,14,22.50
2015,05,28,15,15,22.50
2015,05,28,15,16,22.50
2015,05,28,15,17,22.40
2015,05,28,15,18,22.50
2015,05,28,15,19,22.50
2015,05,28,15,20,22.60
2015,05,28,15,21,22.70
2015,05,28,15,22,22.70
2015,05,28,15,23,22.80
2015,05,28,15,24,22.90
2015,05,28,15,25,23.00
2015,05,28,15,26,23.00
2015,05,28,15,27,23.00
2015,05,28,15,28,23.00
2015,05,28,15,29,22.90
2015,05,28,15,30,22.90
2015,05,28,15,31,22.90
2015,05,28,15,32,22.90
2015,05,28,15,33,23.00
2015,05,28,15,34,23.10
2015,05,28,15,35,23.10
2015,05,28,15,36,23.20
2015,05,28,15,37,23.10
2015,05,28,15,38,23.10
2015,05,28,15,39,23.20
2015,05,28,15,40,23.20
2015,05,28,15,41,23.30
2015,05,28,15,42,23.30
2015,05,28,15,43,23.30
2015,05,28,15,44,23.30
2015,05,28,15,45,23.30
2015,05,28,15,46,23.30
2015,05,28,15,47,23.30
2015,05,28,15,48,23.30
2015,05,28,15,49,23.30
2015,05,28,15,50,23.30
2015,05,28,15,51,23.30
2015,05,28,15,52,23.30
2015,05,28,15,53,23.40
2015,05,28,15,54,23.50
2015,05,28,15,55,23.50
2015,05,28,15,56,23.50
2015,05,28,15,57,23.50
2015,05,28,15,58,23.50
2015,05,28,15,59,23.50
2015,05,28,16,00,23.50
2015,05,28,16,01,23.60
2015,05,28,16,02,23.60
2015,05,28,16,03,23.60
2015,05,28,16,04,23.60
2015,05,28,16,05,23.60
2015,05,28,16,06,23.70
2015,05,28,16,07,23.70
2015,05,28,16,08,23.80
2015,05,28,16,09,23.80
2015,05,28,16,10,23.80
2015,05,28,16,11,23.80
2015,05,28,16,12,23.70
2015,05,28,16,13,23.50
2015,05,28,16,14,23.40
2015,05,28,16,15,23.30
2015,05,28,16,16,23.20
2015,05,28,16,17,23.10
2015,05,28,16,18,23.10
2015,05,28,16,19,23.10
2015,05,28,16,20,23.10
2015,05,28,16,21,23.10
2015,05,28,16,22,23.20
2015,05,28,16,23,23.20
2015,05,28,16,24,23.20
2015,05,28,16,25,23.40
2015,05,28,16,26,23.50
2015,05,28,16,27,23.60
2015,05,28,16,28,23.70
2015,05,28,16,29,23.70
2015,05,28,16,30,23.60
2015,05,28,16,31,23.40
2015,05,28,16,32,23.40
2015,05,28,16,33,23.30
2015,05,28,16,34,23.30
2015,05,28,16,35,23.30
2015,05,28,16,36,23.30
2015,05,28,16,37,23.20
2015,05,28,16,38,23.10
2015,05,28,16,39,23.10
2015,05,28,16,40,23.10
2015,05,28,16,41,23.10
2015,05,28,16,42,23.20
2015,05,28,16,43,23.20
2015,05,28,16,44,23.20
2015,05,28,16,45,23.20
2015,05,28,16,46,23.30
2015,05,28,16,47,23.30
2015,05,28,16,48,23.40
2015,05,28,16,49,23.40
2015,05,28,16,50,23.40
2015,05,28,16,51,23.40
2015,05,28,16,52,23.40
2015,05,28,16,53,23.40
2015,05,28,16,54,23.50
2015,05,28,16,55,23.50
2015,05,28,16,56,23.50
2015,05,28,16,57,23.60
2015,05,28,16,58,23.60
2015,05,28,16,59,23.60
2015,05,28,17,00,23.70
2015,05,28,17,01,23.70
2015,05,28,17,02,23.70
2015,05,28,17,03,23.70
2015,05,28,17,04,23.70
2015,05,28,17,05,23.60
2015,05,28,17,06,23.60
2015,05,28,17,07,23.60
2015,05,28,17,08,23.60
2015,05,28,17,09,23.60
2015,05,28,17,10,23.50
2015,05,28,17,11,23.50
2015,05,28,17,12,23.50
2015,05,28,17,13,23.50
2015,05,28,17,14,23.50
2015,05,28,17,15,23.50
2015,05,28,17,16,23.60
2015,05,28,17,17,23.60
2015,05,28,17,18,23.70
2015,05,28,17,19,23.60